Mora, MN

5:06 PM CDT on March 22, 2017 (GMT -0500)
Mora Municipal

Weather History for KJMR - December, 2013

Change the Weather History Date:

Friday, December 6, 2013

  Actual Average Record
Temperature  
Mean Temperature -2 °F -  
Max Temperature 5 °F 25 °F 58 °F (1939)
Min Temperature -9 °F 3 °F -20 °F (1984)
Degree Days  
Heating Degree Days 67    
Moisture  
Dew Point -12 °F    
Average Humidity 73    
Maximum Humidity 84    
Minimum Humidity 61    
Precipitation  
Precipitation 0.00 in - - ()
Sea Level Pressure  
Sea Level Pressure 30.43 in    
Wind  
Wind Speed 5 mph (West)    
Max Wind Speed 10 mph    
Max Gust Speed -    
Visibility 10 miles    
Events      
Averages and records for this station are not official NWS values.
T = Trace of Precipitation, MM = Missing Value Source: NWS Daily Summary

Daily Weather History Graph

Daily Weather History Graph

Search for Another Location

Airport or City:

Trip Planner

Search our weather history database for the weather conditions in past years. The results will help you decide how hot, cold, wet, or windy it might be!

Date:

Astronomy

Dec. 06, 2013 Rise Set
Actual Time 7:39 AM CST 4:28 PM CST
Civil Twilight 7:05 AM CST 5:02 PM CST
Nautical Twilight 6:28 AM CST 5:40 PM CST
Astronomical Twilight 5:52 AM CST 6:16 PM CST
Moon 10:38 AM CST (12/6) 9:09 PM CST (12/6)
Length of Visible Light 9h 56m
Length of Day
8h 48m
Waxing Crescent, 19% of the Moon is Illuminated
Dec 6
Waxing Crescent
Dec 9
First Quarter
Dec 17
Full
Dec 25
Last Quarter
Jan 1
New

Hourly Weather History & Observations

Time (CST) Temp. Windchill Dew Point Humidity Pressure Visibility Wind Dir Wind Speed Gust Speed Precip Events Conditions
12:14 AM -5.8 °F -16.7 °F -9.4 °F 84% 30.27 in 10.0 mi WSW 4.6 mph - N/A   Clear
12:34 AM -5.8 °F -14.5 °F -11.2 °F 77% 30.27 in 10.0 mi WSW 3.5 mph - N/A   Clear
12:54 AM -5.8 °F -14.5 °F -11.2 °F 77% 30.27 in 10.0 mi WSW 3.5 mph - N/A   Clear
1:14 AM -5.8 °F -14.5 °F -11.2 °F 77% 30.28 in 10.0 mi WSW 3.5 mph - N/A   Clear
1:34 AM -5.8 °F -14.5 °F -11.2 °F 77% 30.29 in 10.0 mi WSW 3.5 mph - N/A   Clear
1:54 AM -5.8 °F -14.5 °F -11.2 °F 77% 30.30 in 10.0 mi WSW 3.5 mph - N/A   Clear
2:14 AM -7.6 °F -16.5 °F -13.0 °F 77% 30.30 in 10.0 mi West 3.5 mph - N/A   Clear
2:34 AM -7.6 °F -18.8 °F -13.0 °F 77% 30.31 in 10.0 mi WSW 4.6 mph - N/A   Clear
2:54 AM -7.6 °F -16.5 °F -13.0 °F 77% 30.30 in 10.0 mi WSW 3.5 mph - N/A   Clear
3:14 AM -7.6 °F -16.5 °F -13.0 °F 77% 30.31 in 10.0 mi WSW 3.5 mph - N/A   Clear
3:34 AM -7.6 °F -18.8 °F -13.0 °F 77% 30.31 in 10.0 mi West 4.6 mph - N/A   Clear
3:54 AM -7.6 °F -18.8 °F -13.0 °F 77% 30.31 in 10.0 mi West 4.6 mph - N/A   Clear
4:14 AM -7.6 °F -18.8 °F -13.0 °F 77% 30.31 in 10.0 mi West 4.6 mph - N/A   Clear
4:34 AM -7.6 °F -18.8 °F -13.0 °F 77% 30.32 in 10.0 mi West 4.6 mph - N/A   Scattered Clouds
4:54 AM -9.4 °F -20.9 °F -14.8 °F 77% 30.33 in 10.0 mi West 4.6 mph - N/A   Clear
5:14 AM -9.4 °F -20.9 °F -14.8 °F 77% 30.34 in 10.0 mi West 4.6 mph - N/A   Clear
5:34 AM -9.4 °F -20.9 °F -14.8 °F 77% 30.33 in 10.0 mi West 4.6 mph - N/A   Clear
5:54 AM -9.4 °F -18.6 °F -16.6 °F 71% 30.34 in 10.0 mi West 3.5 mph - N/A   Clear
6:14 AM -9.4 °F -20.9 °F -16.6 °F 71% 30.35 in 10.0 mi West 4.6 mph - N/A   Clear
6:34 AM -9.4 °F -18.6 °F -14.8 °F 77% 30.37 in 10.0 mi SSW 3.5 mph - N/A   Clear
6:54 AM -9.4 °F - -14.8 °F 77% 30.37 in 10.0 mi Calm Calm - N/A   Clear
7:13 AM -9.4 °F -18.6 °F -14.8 °F 77% 30.38 in 10.0 mi WSW 3.5 mph - N/A   Clear
7:34 AM -9.4 °F - -14.8 °F 77% 30.38 in 10.0 mi Calm Calm - N/A   Clear
7:54 AM -9.4 °F -18.6 °F -16.6 °F 71% 30.39 in 10.0 mi WSW 3.5 mph - N/A   Clear
8:14 AM -9.4 °F -18.6 °F -16.6 °F 71% 30.40 in 10.0 mi WSW 3.5 mph - N/A   Clear
8:34 AM -7.6 °F -16.5 °F -14.8 °F 71% 30.40 in 10.0 mi WSW 3.5 mph - N/A   Clear
8:54 AM -7.6 °F -16.5 °F -13.0 °F 77% 30.41 in 10.0 mi WSW 3.5 mph - N/A   Clear
9:14 AM -7.6 °F -18.8 °F -13.0 °F 77% 30.41 in 10.0 mi West 4.6 mph - N/A   Clear
9:33 AM -5.8 °F -16.7 °F -13.0 °F 71% 30.42 in 10.0 mi West 4.6 mph - N/A   Clear
9:54 AM -5.8 °F -18.4 °F -13.0 °F 71% 30.43 in 10.0 mi West 5.8 mph - N/A   Clear
10:13 AM -4.0 °F -12.4 °F -9.4 °F 78% 30.44 in 10.0 mi WSW 3.5 mph - N/A   Clear
10:34 AM -4.0 °F -14.6 °F -9.4 °F 78% 30.45 in 10.0 mi West 4.6 mph - N/A   Clear
10:54 AM -0.4 °F -13.4 °F -9.4 °F 66% 30.45 in 10.0 mi WSW 6.9 mph - N/A   Clear
11:14 AM -0.4 °F -12.0 °F -9.4 °F 66% 30.45 in 10.0 mi West 5.8 mph - N/A   Clear
11:34 AM -0.4 °F -12.0 °F -7.6 °F 72% 30.44 in 10.0 mi West 5.8 mph - N/A   Clear
11:54 AM 1.4 °F -8.3 °F -7.6 °F 66% 30.44 in 10.0 mi West 4.6 mph - N/A   Clear
12:13 PM 1.4 °F -8.3 °F -7.6 °F 66% 30.44 in 10.0 mi West 4.6 mph - N/A   Clear
12:34 PM 3.2 °F -9.1 °F -5.8 °F 66% 30.44 in 10.0 mi West 6.9 mph - N/A   Clear
12:53 PM 5.0 °F -10.0 °F -5.8 °F 61% 30.44 in 10.0 mi WNW 10.4 mph - N/A   Clear
1:14 PM 3.2 °F -12.2 °F -5.8 °F 66% 30.44 in 10.0 mi West 10.4 mph - N/A   Clear
1:34 PM 3.2 °F -11.3 °F -7.6 °F 61% 30.44 in 10.0 mi West 9.2 mph - N/A   Clear
1:53 PM 3.2 °F -10.3 °F -7.6 °F 61% 30.44 in 10.0 mi West 8.1 mph - N/A   Clear
2:14 PM 1.4 °F -13.5 °F -7.6 °F 66% 30.44 in 10.0 mi West 9.2 mph - N/A   Clear
2:34 PM 1.4 °F -12.5 °F -7.6 °F 66% 30.44 in 10.0 mi West 8.1 mph - N/A   Clear
2:54 PM 1.4 °F -14.5 °F -7.6 °F 66% 30.44 in 10.0 mi West 10.4 mph - N/A   Clear
3:13 PM 1.4 °F -11.3 °F -7.6 °F 66% 30.45 in 10.0 mi West 6.9 mph - N/A   Clear
3:34 PM 1.4 °F -11.3 °F -7.6 °F 66% 30.47 in 10.0 mi WSW 6.9 mph - N/A   Clear
3:54 PM -0.4 °F -12.0 °F -7.6 °F 72% 30.47 in 10.0 mi West 5.8 mph - N/A   Clear
4:14 PM -0.4 °F -12.0 °F -9.4 °F 66% 30.47 in 10.0 mi West 5.8 mph - N/A   Clear
4:34 PM -2.2 °F -14.2 °F -9.4 °F 71% 30.48 in 10.0 mi West 5.8 mph - N/A   Clear
4:54 PM -2.2 °F -14.2 °F -9.4 °F 71% 30.48 in 10.0 mi West 5.8 mph - N/A   Clear
5:14 PM -4.0 °F -17.8 °F -9.4 °F 78% 30.48 in 10.0 mi West 6.9 mph - N/A   Clear
5:33 PM -4.0 °F -14.6 °F -9.4 °F 78% 30.49 in 10.0 mi West 4.6 mph - N/A   Clear
5:54 PM -4.0 °F -14.6 °F -9.4 °F 78% 30.49 in 10.0 mi West 4.6 mph - N/A   Clear
6:14 PM -4.0 °F -12.4 °F -9.4 °F 78% 30.50 in 10.0 mi West 3.5 mph - N/A   Clear
6:33 PM -5.8 °F -16.7 °F -11.2 °F 77% 30.50 in 10.0 mi West 4.6 mph - N/A   Clear
6:54 PM -5.8 °F -16.7 °F -11.2 °F 77% 30.51 in 10.0 mi West 4.6 mph - N/A   Clear
7:14 PM -5.8 °F -16.7 °F -11.2 °F 77% 30.51 in 10.0 mi West 4.6 mph - N/A   Clear
7:34 PM -5.8 °F -16.7 °F -13.0 °F 71% 30.51 in 10.0 mi West 4.6 mph - N/A   Clear
7:54 PM -5.8 °F -16.7 °F -13.0 °F 71% 30.52 in 10.0 mi West 4.6 mph - N/A   Clear
8:13 PM -5.8 °F -16.7 °F -13.0 °F 71% 30.53 in 10.0 mi West 4.6 mph - N/A   Clear
8:33 PM -7.6 °F -18.8 °F -13.0 °F 77% 30.53 in 10.0 mi West 4.6 mph - N/A   Clear
8:54 PM -7.6 °F -18.8 °F -13.0 °F 77% 30.54 in 10.0 mi West 4.6 mph - N/A   Clear
9:13 PM -7.6 °F -22.1 °F -14.8 °F 71% 30.54 in 10.0 mi WNW 6.9 mph - N/A   Clear
9:34 PM -7.6 °F -23.4 °F -14.8 °F 71% 30.54 in 10.0 mi WNW 8.1 mph - N/A   Clear
9:53 PM -7.6 °F -20.6 °F -14.8 °F 71% 30.55 in 10.0 mi WNW 5.8 mph - N/A   Clear
10:14 PM -7.6 °F -18.8 °F -14.8 °F 71% 30.56 in 10.0 mi WNW 4.6 mph - N/A   Clear
10:34 PM -7.6 °F -18.8 °F -14.8 °F 71% 30.56 in 10.0 mi West 4.6 mph - N/A   Clear
10:53 PM -9.4 °F -20.9 °F -16.6 °F 71% 30.57 in 10.0 mi WNW 4.6 mph - N/A   Clear
11:14 PM -9.4 °F - -16.6 °F 71% 30.57 in 10.0 mi Calm Calm - N/A   Clear
11:33 PM -9.4 °F -20.9 °F -16.6 °F 71% 30.58 in 10.0 mi West 4.6 mph - N/A   Clear
11:54 PM -9.4 °F -18.6 °F -16.6 °F 71% 30.58 in 10.0 mi West 3.5 mph - N/A   Clear